Terminal Aerodrome Forecast
Issued by NWS Grand Forks, ND

Home | Current Version | Previous Version | Graphics & Text | Print | Product List | Glossary On
Versions: 1 2 3 4 5 6 7 8 9 10 11 12 13 14 15 16 17 18 19 20
000
FTUS43 KFGF 011000 AAA
TAFFAR
TAF AMD
KFAR 011009Z 0110/0206 30005KT 1/4SM FG SCT002
     FM011200 24006KT 3SM BR SCT008
     FM011600 27012KT P6SM SKC
     FM020100 18007KT P6SM SKC=

USA.gov is the U.S. government's official web portal to all federal, state and local government web resources and services.